Weather History for Norfolk, VA

Change the Weather History Date:

Friday, October 26, 2012

  Actual Average Record
Temperature  
Mean Temperature 68 °F 59 °F  
Max Temperature 71 °F 67 °F 83 °F (1939)
Min Temperature 64 °F 51 °F 36 °F (1962)
Degree Days  
Heating Degree Days 0 7  
Month to date heating degree days 81 108  
Since 1 July heating degree days 85 119  
Cooling Degree Days 3 1  
Month to date cooling degree days 68 51  
Year to date cooling degree days 1850 1616  
Growing Degree Days 18 (Base 50)    
Moisture  
Dew Point 63 °F    
Average Humidity 89    
Maximum Humidity 93    
Minimum Humidity 84    
Precipitation  
Precipitation T in 0.10 in 1.99 in (1897)
Month to date precipitation 2.58 2.86  
Year to date precipitation 36.53 39.56  
Snow  
Snow 0.00 in 0.00 in 0.00 in (2002)
Month to date snowfall 0.0 0.0  
Since 1 July snowfall 0.0 0.0  
Snow Depth 0.00 in    
Sea Level Pressure  
Sea Level Pressure 30.06 in    
Wind  
Wind Speed 9 mph (NE)    
Max Wind Speed 16 mph    
Max Gust Speed 21 mph    
Visibility 10 miles    
Events Rain    
T = Trace of Precipitation, MM = Missing Value Source: NWS Daily Summary

Daily Weather History Graph

Daily Weather History Graph

Search for Another Location

Airport:

Trip Planner

Search our weather history database for the weather conditions in past years. The results will help you decide how hot, cold, wet, or windy it might be!

Date:

Astronomy

Oct. 26, 2012 Rise Set
Actual Time 7:23 AM EDT 6:13 PM EDT
Civil Twilight 6:56 AM EDT 6:40 PM EDT
Nautical Twilight 6:26 AM EDT 7:10 PM EDT
Astronomical Twilight 5:56 AM EDT 7:40 PM EDT
Moon 4:25 PM EDT (10/26) 4:21 AM EDT (10/26)
Length of Visible Light 11h 43m
Length of Day
10h 50m
Waxing Gibbous, 91% of the Moon is Illuminated
Oct 26
Waxing Gibbous
Oct 29
Full
Nov 6
Last Quarter
Nov 13
New
Nov 20
First Quarter

Hourly Weather History & Observations

Time (EDT) Temp. Dew Point Humidity Pressure Visibility Wind Dir Wind Speed Gust Speed Precip Events Conditions
12:51 AM 66.9 °F 64.0 °F 90% 30.12 in 9.0 mi ENE 8.1 mph - N/A   Overcast
1:51 AM 66.9 °F 64.0 °F 90% 30.12 in 9.0 mi ENE 4.6 mph - N/A   Overcast
2:51 AM 66.9 °F 64.0 °F 90% 30.10 in 8.0 mi NE 4.6 mph - N/A   Overcast
3:51 AM 66.0 °F 64.0 °F 93% 30.09 in 7.0 mi NNE 5.8 mph - N/A   Overcast
4:51 AM 64.9 °F 63.0 °F 93% 30.09 in 8.0 mi NNE 4.6 mph - N/A   Overcast
5:01 AM 64.4 °F 62.6 °F 94% 30.09 in 8.0 mi NE 4.6 mph - N/A   Mostly Cloudy
5:17 AM 64.4 °F 62.6 °F 94% 30.09 in 9.0 mi NNE 4.6 mph - N/A   Partly Cloudy
5:51 AM 64.9 °F 63.0 °F 93% 30.09 in 10.0 mi NNE 5.8 mph - N/A   Clear
6:51 AM 64.9 °F 63.0 °F 93% 30.09 in 10.0 mi NE 6.9 mph - N/A   Clear
7:47 AM 64.4 °F 62.6 °F 94% 30.10 in 10.0 mi NE 9.2 mph - N/A   Scattered Clouds
7:51 AM 64.9 °F 63.0 °F 93% 30.10 in 10.0 mi NE 6.9 mph - N/A   Mostly Cloudy
7:58 AM 66.2 °F 64.4 °F 94% 30.10 in 10.0 mi NE 6.9 mph - N/A   Mostly Cloudy
8:51 AM 66.9 °F 64.0 °F 90% 30.12 in 10.0 mi NE 8.1 mph - N/A   Overcast
9:51 AM 68.0 °F 64.0 °F 87% 30.12 in 10.0 mi ENE 10.4 mph - N/A   Mostly Cloudy
10:08 AM 69.8 °F 64.4 °F 83% 30.12 in 10.0 mi NE 13.8 mph 20.7 mph N/A   Scattered Clouds
10:51 AM 70.0 °F 64.0 °F 81% 30.12 in 10.0 mi North - - N/A   Mostly Cloudy
11:19 AM 69.8 °F 64.4 °F 83% 30.12 in 10.0 mi North - - N/A   Mostly Cloudy
11:51 AM 68.0 °F 64.0 °F 87% 30.12 in 10.0 mi North 10.4 mph - N/A   Overcast
12:11 PM 66.2 °F 62.6 °F 88% 30.11 in 10.0 mi North 9.2 mph 17.3 mph N/A   Overcast
12:51 PM 66.0 °F 63.0 °F 90% 30.09 in 10.0 mi North 10.4 mph - N/A   Overcast
1:24 PM 66.2 °F 64.4 °F 94% 30.07 in 6.0 mi NNE 9.2 mph - 0.00 in Rain Light Rain
1:51 PM 66.9 °F 64.0 °F 90% 30.06 in 10.0 mi NE 12.7 mph - 0.00 in   Overcast
2:44 PM 69.8 °F 62.6 °F 78% 30.04 in 10.0 mi NE 10.4 mph - N/A   Overcast
2:51 PM 68.0 °F 64.0 °F 87% 30.04 in 10.0 mi NE 11.5 mph - N/A   Overcast
3:31 PM 68.0 °F 64.4 °F 88% 30.02 in 10.0 mi NNE 11.5 mph - N/A   Overcast
3:51 PM 68.0 °F 64.0 °F 87% 30.02 in 10.0 mi NNE 12.7 mph - N/A   Overcast
4:08 PM 68.0 °F 64.4 °F 88% 30.02 in 10.0 mi NNE 13.8 mph - N/A   Overcast
4:18 PM 66.2 °F 64.4 °F 94% 30.01 in 10.0 mi NNE 11.5 mph - N/A   Mostly Cloudy
4:38 PM 66.2 °F 64.4 °F 94% 30.01 in 10.0 mi NNE 13.8 mph - N/A   Overcast
4:51 PM 66.9 °F 64.0 °F 90% 30.00 in 10.0 mi NNE 12.7 mph - N/A   Overcast
5:44 PM 66.2 °F 62.6 °F 88% 30.00 in 10.0 mi NE 12.7 mph - N/A   Mostly Cloudy
5:51 PM 66.9 °F 63.0 °F 87% 30.00 in 10.0 mi NE 12.7 mph - N/A   Scattered Clouds
6:51 PM 66.0 °F 63.0 °F 90% 30.01 in 10.0 mi NE 10.4 mph - N/A   Mostly Cloudy
7:51 PM 66.9 °F 63.0 °F 87% 30.01 in 10.0 mi ENE 9.2 mph - 0.00 in   Mostly Cloudy
8:51 PM 66.9 °F 63.0 °F 87% 30.00 in 10.0 mi ENE 10.4 mph - N/A   Mostly Cloudy
9:51 PM 66.0 °F 63.0 °F 90% 29.99 in 10.0 mi NE 8.1 mph - N/A   Clear
10:51 PM 66.0 °F 62.1 °F 87% 29.97 in 10.0 mi NE 11.5 mph - N/A   Clear
11:51 PM 66.0 °F 62.1 °F 87% 29.96 in 10.0 mi NE 13.8 mph - N/A   Clear